Time,TemperatureF,DewpointF,PressureIn,WindDirection,WindDirectionDegrees,WindSpeedMPH,WindSpeedGustMPH,Humidity,HourlyPrecipIn,Conditions,Clouds,dailyrainin,SoftwareType,DateUTC
2013-03-29 00:03:00,40.0,28.0,30.16,NW,310,2.0,3.0,62,0.00,,,0.00,,2013-03-29 04:03:00,
2013-03-29 00:13:00,40.0,28.0,30.16,NW,310,2.0,3.0,62,0.00,,,0.00,,2013-03-29 04:13:00,
2013-03-29 00:22:00,41.0,29.0,30.16,North,355,3.0,9.0,62,0.00,,,0.00,,2013-03-29 04:22:00,
2013-03-29 00:33:00,42.0,29.0,30.16,NW,320,5.0,6.0,60,0.00,,,0.00,,2013-03-29 04:33:00,
2013-03-29 00:43:00,42.0,29.0,30.16,NW,320,5.0,6.0,60,0.00,,,0.00,,2013-03-29 04:43:00,
2013-03-29 00:53:00,41.0,28.0,30.16,WNW,300,6.0,10.0,60,0.00,,,0.00,,2013-03-29 04:53:00,
2013-03-29 01:03:00,41.0,29.0,30.16,NNW,330,6.0,6.0,61,0.00,,,0.00,,2013-03-29 05:03:00,
2013-03-29 01:12:00,41.0,29.0,30.16,NNW,330,6.0,6.0,61,0.00,,,0.00,,2013-03-29 05:12:00,
2013-03-29 01:23:00,41.0,29.0,30.16,NW,320,6.0,9.0,61,0.00,,,0.00,,2013-03-29 05:23:00,
2013-03-29 01:33:00,42.0,29.0,30.16,NW,320,6.0,9.0,60,0.00,,,0.00,,2013-03-29 05:33:00,
2013-03-29 01:43:00,42.0,29.0,30.16,NW,320,6.0,9.0,60,0.00,,,0.00,,2013-03-29 05:43:00,
2013-03-29 01:52:00,41.0,28.0,30.16,NW,305,6.0,8.0,60,0.00,,,0.00,,2013-03-29 05:52:00,
2013-03-29 02:02:00,41.0,29.0,30.16,NW,315,6.0,6.0,61,0.00,,,0.00,,2013-03-29 06:02:00,
2013-03-29 02:12:00,41.0,29.0,30.16,NW,315,6.0,6.0,61,0.00,,,0.00,,2013-03-29 06:12:00,
2013-03-29 02:23:00,41.0,28.0,30.16,West,275,6.0,7.0,59,0.00,,,0.00,,2013-03-29 06:23:00,
2013-03-29 02:32:00,42.0,28.0,30.16,NW,305,6.0,8.0,58,0.00,,,0.00,,2013-03-29 06:32:00,
2013-03-29 02:42:00,42.0,28.0,30.16,NW,305,6.0,8.0,58,0.00,,,0.00,,2013-03-29 06:42:00,
2013-03-29 02:52:00,42.0,28.0,30.16,WNW,290,6.0,8.0,57,0.00,,,0.00,,2013-03-29 06:52:00,
2013-03-29 03:03:00,41.0,27.0,30.16,WNW,295,6.0,8.0,56,0.00,,,0.00,,2013-03-29 07:03:00,
2013-03-29 03:12:00,41.0,27.0,30.16,WNW,295,6.0,8.0,56,0.00,,,0.00,,2013-03-29 07:12:00,
2013-03-29 03:22:00,41.0,27.0,30.16,NW,315,6.0,9.0,57,0.00,,,0.00,,2013-03-29 07:22:00,
2013-03-29 03:32:00,42.0,27.0,30.16,NW,305,7.0,12.0,56,0.00,,,0.00,,2013-03-29 07:32:00,
2013-03-29 03:42:00,42.0,27.0,30.16,NW,305,7.0,12.0,56,0.00,,,0.00,,2013-03-29 07:42:00,
2013-03-29 03:52:00,41.0,28.0,30.16,WNW,285,5.0,7.0,59,0.00,,,0.00,,2013-03-29 07:52:00,
2013-03-29 04:02:00,40.0,27.0,30.16,NW,305,5.0,6.0,60,0.00,,,0.00,,2013-03-29 08:02:00,
2013-03-29 04:12:00,40.0,27.0,30.16,NW,305,5.0,6.0,60,0.00,,,0.00,,2013-03-29 08:12:00,
2013-03-29 04:22:00,40.0,28.0,30.16,NW,305,6.0,7.0,62,0.00,,,0.00,,2013-03-29 08:22:00,
2013-03-29 04:32:00,40.0,28.0,30.16,NW,315,5.0,8.0,63,0.00,,,0.00,,2013-03-29 08:32:00,
2013-03-29 04:42:00,40.0,28.0,30.16,NW,315,5.0,8.0,63,0.00,,,0.00,,2013-03-29 08:42:00,
2013-03-29 04:53:00,40.0,28.0,30.16,WNW,285,6.0,8.0,63,0.00,,,0.00,,2013-03-29 08:53:00,
2013-03-29 05:02:00,40.0,28.0,30.16,NW,310,6.0,6.0,61,0.00,,,0.00,,2013-03-29 09:02:00,
2013-03-29 05:13:00,40.0,28.0,30.16,NW,310,6.0,6.0,61,0.00,,,0.00,,2013-03-29 09:13:00,
2013-03-29 05:22:00,40.0,28.0,30.16,NW,310,5.0,6.0,61,0.00,,,0.00,,2013-03-29 09:22:00,
2013-03-29 05:33:00,39.0,27.0,30.16,WNW,285,5.0,8.0,61,0.00,,,0.00,,2013-03-29 09:33:00,
2013-03-29 05:43:00,39.0,27.0,30.16,WNW,285,5.0,8.0,61,0.00,,,0.00,,2013-03-29 09:43:00,
2013-03-29 05:52:00,39.0,27.0,30.16,NW,305,7.0,9.0,61,0.00,,,0.00,,2013-03-29 09:52:00,
2013-03-29 06:03:00,39.0,27.0,30.16,NW,305,7.0,7.0,61,0.00,,,0.00,,2013-03-29 10:03:00,
2013-03-29 06:12:00,39.0,27.0,30.16,NW,305,7.0,7.0,61,0.00,,,0.00,,2013-03-29 10:12:00,
2013-03-29 06:23:00,39.0,27.0,30.16,WNW,295,5.0,8.0,62,0.00,,,0.00,,2013-03-29 10:23:00,
2013-03-29 06:33:00,39.0,27.0,30.16,WNW,300,5.0,5.0,62,0.00,,,0.00,,2013-03-29 10:33:00,
2013-03-29 06:42:00,39.0,27.0,30.16,WNW,300,5.0,5.0,62,0.00,,,0.00,,2013-03-29 10:42:00,
2013-03-29 06:53:00,38.0,27.0,30.19,NW,305,6.0,7.0,63,0.00,,,0.00,,2013-03-29 10:53:00,
2013-03-29 07:03:00,39.0,27.0,30.19,NW,310,6.0,7.0,63,0.00,,,0.00,,2013-03-29 11:03:00,
2013-03-29 07:12:00,39.0,27.0,30.19,NW,310,6.0,7.0,63,0.00,,,0.00,,2013-03-29 11:12:00,
2013-03-29 07:23:00,38.0,27.0,30.19,NW,320,6.0,7.0,64,0.00,,,0.00,,2013-03-29 11:23:00,
2013-03-29 07:33:00,38.0,27.0,30.19,NW,320,6.0,9.0,64,0.00,,,0.00,,2013-03-29 11:33:00,
2013-03-29 07:42:00,38.0,27.0,30.19,NW,320,6.0,9.0,64,0.00,,,0.00,,2013-03-29 11:42:00,
2013-03-29 07:53:00,40.0,26.0,30.19,NW,310,6.0,9.0,57,0.00,,,0.00,,2013-03-29 11:53:00,
2013-03-29 08:03:00,40.0,26.0,30.19,NW,315,7.0,9.0,56,0.00,,,0.00,,2013-03-29 12:03:00,
2013-03-29 08:12:00,40.0,26.0,30.19,NW,315,7.0,9.0,56,0.00,,,0.00,,2013-03-29 12:12:00,
2013-03-29 08:22:00,41.0,27.0,30.19,NW,305,7.0,8.0,57,0.00,,,0.00,,2013-03-29 12:22:00,
2013-03-29 08:32:00,42.0,27.0,30.19,NW,305,7.0,9.0,55,0.00,,,0.00,,2013-03-29 12:32:00,
2013-03-29 08:42:00,42.0,27.0,30.19,NW,305,7.0,9.0,55,0.00,,,0.00,,2013-03-29 12:42:00,
2013-03-29 08:53:00,43.0,28.0,30.19,NW,310,8.0,9.0,55,0.00,,,0.00,,2013-03-29 12:53:00,
2013-03-29 09:03:00,43.0,28.0,30.19,NW,310,8.0,9.0,55,0.00,,,0.00,,2013-03-29 13:03:00,
2013-03-29 09:12:00,43.0,28.0,30.19,NW,310,8.0,9.0,55,0.00,,,0.00,,2013-03-29 13:12:00,
2013-03-29 09:22:00,44.0,28.0,30.19,NW,310,8.0,10.0,54,0.00,,,0.00,,2013-03-29 13:22:00,
2013-03-29 09:32:00,44.0,28.0,30.19,NW,310,8.0,10.0,54,0.00,,,0.00,,2013-03-29 13:32:00,
2013-03-29 09:43:00,44.0,28.0,30.19,NW,310,8.0,10.0,54,0.00,,,0.00,,2013-03-29 13:43:00,
2013-03-29 09:53:00,44.0,29.0,30.19,NW,305,9.0,10.0,55,0.00,,,0.00,,2013-03-29 13:53:00,
2013-03-29 10:03:00,44.0,28.0,30.19,WNW,300,9.0,12.0,54,0.00,,,0.00,,2013-03-29 14:03:00,
2013-03-29 10:12:00,44.0,28.0,30.19,WNW,300,9.0,12.0,54,0.00,,,0.00,,2013-03-29 14:12:00,
2013-03-29 10:22:00,44.0,28.0,30.19,WNW,295,10.0,12.0,54,0.00,,,0.00,,2013-03-29 14:22:00,
2013-03-29 10:32:00,45.0,28.0,30.22,WNW,300,10.0,13.0,52,0.00,,,0.00,,2013-03-29 14:32:00,
2013-03-29 10:42:00,45.0,28.0,30.22,WNW,300,10.0,13.0,52,0.00,,,0.00,,2013-03-29 14:42:00,
2013-03-29 10:53:00,46.0,28.0,30.19,NW,320,13.0,16.0,50,0.00,,,0.00,,2013-03-29 14:53:00,
2013-03-29 11:02:00,46.0,28.0,30.19,NW,305,13.0,13.0,50,0.00,,,0.00,,2013-03-29 15:02:00,
2013-03-29 11:12:00,46.0,28.0,30.19,NW,305,13.0,13.0,50,0.00,,,0.00,,2013-03-29 15:12:00,
2013-03-29 11:22:00,47.0,29.0,30.19,NW,315,10.0,14.0,50,0.00,,,0.00,,2013-03-29 15:22:00,
2013-03-29 11:33:00,47.0,29.0,30.19,WNW,300,10.0,12.0,49,0.00,,,0.00,,2013-03-29 15:33:00,
2013-03-29 11:43:00,47.0,29.0,30.19,WNW,300,10.0,12.0,49,0.00,,,0.00,,2013-03-29 15:43:00,
2013-03-29 11:53:00,49.0,30.0,30.19,WNW,295,10.0,12.0,47,0.00,,,0.00,,2013-03-29 15:53:00,
2013-03-29 12:03:00,49.0,29.0,30.19,WNW,300,10.0,10.0,46,0.00,,,0.00,,2013-03-29 16:03:00,
2013-03-29 12:23:00,49.0,29.0,30.19,WNW,300,10.0,10.0,46,0.00,,,0.00,,2013-03-29 16:23:00,
2013-03-29 12:33:00,50.0,26.0,30.19,NW,320,12.0,14.0,39,0.00,,,0.00,,2013-03-29 16:33:00,
2013-03-29 12:43:00,50.0,26.0,30.19,NW,320,12.0,14.0,39,0.00,,,0.00,,2013-03-29 16:43:00,
2013-03-29 12:53:00,50.0,26.0,30.19,WNW,300,12.0,14.0,39,0.00,,,0.00,,2013-03-29 16:53:00,
2013-03-29 13:03:00,50.0,26.0,30.19,NW,325,10.0,13.0,39,0.00,,,0.00,,2013-03-29 17:03:00,
2013-03-29 13:12:00,50.0,26.0,30.19,NW,325,10.0,13.0,39,0.00,,,0.00,,2013-03-29 17:12:00,
2013-03-29 13:23:00,50.0,26.0,30.16,NW,310,10.0,15.0,39,0.00,,,0.00,,2013-03-29 17:23:00,
2013-03-29 13:33:00,50.0,26.0,30.16,NW,305,10.0,12.0,39,0.00,,,0.00,,2013-03-29 17:33:00,
2013-03-29 13:43:00,50.0,26.0,30.16,NW,305,10.0,12.0,39,0.00,,,0.00,,2013-03-29 17:43:00,
2013-03-29 13:53:00,51.0,27.0,30.16,West,270,10.0,12.0,39,0.00,,,0.00,,2013-03-29 17:53:00,
2013-03-29 14:02:00,51.0,27.0,30.16,West,260,10.0,10.0,39,0.00,,,0.00,,2013-03-29 18:02:00,
2013-03-29 14:12:00,51.0,27.0,30.16,West,260,10.0,10.0,39,0.00,,,0.00,,2013-03-29 18:12:00,
2013-03-29 14:23:00,52.0,28.0,30.16,WSW,255,10.0,14.0,39,0.00,,,0.00,,2013-03-29 18:23:00,
2013-03-29 14:32:00,51.0,27.0,30.13,NW,305,10.0,12.0,39,0.00,,,0.00,,2013-03-29 18:32:00,
2013-03-29 14:42:00,51.0,27.0,30.13,NW,305,10.0,12.0,39,0.00,,,0.00,,2013-03-29 18:42:00,
2013-03-29 14:53:00,53.0,29.0,30.13,NW,305,8.0,14.0,39,0.00,,,0.00,,2013-03-29 18:53:00,
2013-03-29 15:02:00,53.0,29.0,30.13,West,275,8.0,14.0,39,0.00,,,0.00,,2013-03-29 19:02:00,
2013-03-29 15:12:00,52.0,28.0,30.13,West,275,8.0,14.0,39,0.11,,,0.11,,2013-03-29 19:12:00,
2013-03-29 15:23:00,52.0,28.0,30.13,West,275,8.0,14.0,39,0.11,,,0.11,,2013-03-29 19:23:00,
2013-03-29 15:33:00,53.0,29.0,30.13,WNW,285,9.0,14.0,39,0.11,,,0.11,,2013-03-29 19:33:00,
2013-03-29 15:42:00,53.0,29.0,30.13,WNW,285,9.0,14.0,39,0.11,,,0.11,,2013-03-29 19:42:00,
2013-03-29 15:53:00,54.0,30.0,30.13,West,275,9.0,13.0,39,0.11,,,0.11,,2013-03-29 19:53:00,
2013-03-29 16:02:00,54.0,30.0,30.13,WNW,295,9.0,9.0,39,0.11,,,0.11,,2013-03-29 20:02:00,
2013-03-29 16:12:00,54.0,30.0,30.13,WNW,295,9.0,9.0,39,0.11,,,0.11,,2013-03-29 20:12:00,
2013-03-29 16:22:00,53.0,29.0,30.10,West,260,8.0,9.0,39,0.00,,,0.11,,2013-03-29 20:22:00,
2013-03-29 16:33:00,55.0,31.0,30.10,West,275,8.0,9.0,39,0.00,,,0.11,,2013-03-29 20:33:00,
2013-03-29 16:42:00,55.0,31.0,30.10,West,275,8.0,9.0,39,0.00,,,0.11,,2013-03-29 20:42:00,
2013-03-29 16:52:00,56.0,31.0,30.10,West,265,8.0,9.0,39,0.00,,,0.11,,2013-03-29 20:52:00,
2013-03-29 17:02:00,56.0,31.0,30.10,West,270,8.0,9.0,39,0.00,,,0.11,,2013-03-29 21:02:00,
2013-03-29 17:12:00,56.0,31.0,30.10,West,270,8.0,9.0,39,0.00,,,0.11,,2013-03-29 21:12:00,
2013-03-29 17:22:00,53.0,29.0,30.10,WNW,285,7.0,8.0,39,0.00,,,0.11,,2013-03-29 21:22:00,
2013-03-29 17:33:00,52.0,28.0,30.10,WNW,285,7.0,10.0,39,0.00,,,0.11,,2013-03-29 21:33:00,
2013-03-29 17:43:00,52.0,28.0,30.10,WNW,285,7.0,10.0,39,0.00,,,0.11,,2013-03-29 21:43:00,
2013-03-29 17:53:00,51.0,30.0,30.10,WNW,285,8.0,13.0,44,0.00,,,0.11,,2013-03-29 21:53:00,
2013-03-29 18:03:00,51.0,27.0,30.10,West,280,8.0,8.0,39,0.00,,,0.11,,2013-03-29 22:03:00,
2013-03-29 18:13:00,51.0,27.0,30.10,West,280,8.0,8.0,39,0.00,,,0.11,,2013-03-29 22:13:00,
2013-03-29 18:23:00,51.0,27.0,30.10,NW,305,6.0,9.0,39,0.00,,,0.11,,2013-03-29 22:23:00,
2013-03-29 18:33:00,50.0,28.0,30.10,WNW,295,6.0,8.0,42,0.00,,,0.11,,2013-03-29 22:33:00,
2013-03-29 18:42:00,50.0,28.0,30.10,WNW,295,6.0,8.0,42,0.00,,,0.11,,2013-03-29 22:42:00,
2013-03-29 18:54:00,50.0,29.0,30.10,NW,305,7.0,8.0,45,0.00,,,0.11,,2013-03-29 22:54:00,
2013-03-29 19:03:00,49.0,30.0,30.10,West,275,6.0,6.0,47,0.00,,,0.11,,2013-03-29 23:03:00,
2013-03-29 19:12:00,49.0,30.0,30.10,West,275,6.0,6.0,47,0.00,,,0.11,,2013-03-29 23:12:00,
2013-03-29 19:22:00,48.0,31.0,30.13,West,280,5.0,6.0,52,0.00,,,0.11,,2013-03-29 23:22:00,
2013-03-29 19:32:00,47.0,29.0,30.13,NNW,345,5.0,6.0,50,0.00,,,0.11,,2013-03-29 23:32:00,
2013-03-29 19:42:00,47.0,29.0,30.13,NNW,345,5.0,6.0,50,0.00,,,0.11,,2013-03-29 23:42:00,
2013-03-29 19:53:00,46.0,28.0,30.13,WSW,245,3.0,6.0,50,0.00,,,0.11,,2013-03-29 23:53:00,
2013-03-29 20:03:00,46.0,30.0,30.13,West,275,3.0,5.0,54,0.00,,,0.11,,2013-03-30 00:03:00,
2013-03-29 20:12:00,46.0,30.0,30.13,West,275,3.0,5.0,54,0.00,,,0.11,,2013-03-30 00:12:00,
2013-03-29 20:22:00,44.0,29.0,30.13,WNW,285,2.0,3.0,56,0.00,,,0.11,,2013-03-30 00:22:00,
2013-03-29 20:32:00,44.0,30.0,30.13,WNW,295,1.0,0.0,57,0.00,,,0.11,,2013-03-30 00:32:00,
2013-03-29 20:42:00,44.0,30.0,30.13,WNW,295,1.0,0.0,57,0.00,,,0.11,,2013-03-30 00:42:00,
2013-03-29 20:53:00,44.0,29.0,30.16,West,275,3.0,6.0,56,0.00,,,0.11,,2013-03-30 00:53:00,
2013-03-29 21:03:00,44.0,30.0,30.16,NW,310,2.0,0.0,57,0.00,,,0.11,,2013-03-30 01:03:00,
2013-03-29 21:12:00,44.0,30.0,30.16,NW,310,2.0,0.0,57,0.00,,,0.11,,2013-03-30 01:12:00,
2013-03-29 21:22:00,41.0,29.0,30.16,West,270,0.0,2.0,61,0.00,,,0.11,,2013-03-30 01:22:00,
2013-03-29 21:33:00,42.0,30.0,30.16,WSW,240,0.0,0.0,61,0.00,,,0.11,,2013-03-30 01:33:00,
2013-03-29 21:43:00,42.0,30.0,30.16,WSW,240,0.0,0.0,61,0.00,,,0.11,,2013-03-30 01:43:00,
2013-03-29 21:53:00,42.0,29.0,30.16,WNW,295,0.0,0.0,59,0.00,,,0.11,,2013-03-30 01:53:00,
2013-03-29 22:03:00,42.0,28.0,30.16,WNW,290,0.0,0.0,57,0.00,,,0.11,,2013-03-30 02:03:00,
2013-03-29 22:12:00,42.0,28.0,30.16,WNW,290,0.0,0.0,57,0.00,,,0.11,,2013-03-30 02:12:00,
2013-03-29 22:22:00,41.0,28.0,30.16,WSW,240,0.0,3.0,60,0.00,,,0.11,,2013-03-30 02:22:00,
2013-03-29 22:33:00,40.0,27.0,30.16,West,270,0.0,0.0,60,0.00,,,0.11,,2013-03-30 02:33:00,
2013-03-29 22:42:00,40.0,27.0,30.16,West,270,0.0,0.0,60,0.00,,,0.11,,2013-03-30 02:42:00,
2013-03-29 22:53:00,38.0,27.0,30.16,West,260,0.0,0.0,65,0.00,,,0.11,,2013-03-30 02:53:00,
2013-03-29 23:03:00,38.0,28.0,30.16,WSW,255,0.0,0.0,66,0.00,,,0.11,,2013-03-30 03:03:00,
2013-03-29 23:12:00,38.0,28.0,30.16,WSW,255,0.0,0.0,67,0.00,,,0.11,,2013-03-30 03:12:00,
2013-03-29 23:22:00,38.0,28.0,30.16,WSW,255,0.0,0.0,67,0.00,,,0.11,,2013-03-30 03:22:00,
2013-03-29 23:33:00,38.0,28.0,30.16,WSW,255,0.0,0.0,67,0.00,,,0.11,,2013-03-30 03:33:00,
2013-03-29 23:43:00,38.0,28.0,30.16,WSW,255,0.0,0.0,67,0.00,,,0.11,,2013-03-30 03:43:00,
2013-03-29 23:53:00,38.0,28.0,30.16,West,260,0.0,0.0,68,0.00,,,0.11,,2013-03-30 03:53:00,